Regional Weather Roundup
Issued by NWS

Home | Current Version | Previous Version | Graphics & Text | Print | Product List | Glossary Off
Versions: 1 2 3 4 5 6 7 8 9 10 11 12 13 14 15 16 17 18 19 20 21 22 23 24 25 26 27 28 29 30 31 32 33 34 35 36 37 38 39 40 41 42 43 44 45 46 47 48 49 50

000
ASUS43 KTOP 260859
RWRKS

WEATHER ROUNDUP FOR KANSAS
NATIONAL WEATHER SERVICE GOODLAND KS
400 AM CDT THU MAY 26 2016

NOTE:  "FAIR" INDICATES FEW OR NO CLOUDS BELOW 12,000 FEET WITH NO
SIGNIFICANT WEATHER AND/OR OBSTRUCTIONS TO VISIBILITY.

KSZ001>006-013>018-027>032-041>047-261000-
NORTHWEST KANSAS

CITY           SKY/WX    TMP DP  RH WIND       PRES   REMARKS
GOODLAND       MOCLDY    49  46  90 NW8       29.92S
HAYS           PTCLDY    52  50  93 SE5       29.84F
HILL CITY      CLEAR     52  49  89 N3        29.86F
RUSSELL        CLEAR     61  56  83 E9        29.82F
$$

KSZ061>065-074>080-084>089-261000-
SOUTHWEST KANSAS

CITY           SKY/WX    TMP DP  RH WIND       PRES   REMARKS
DODGE CITY     MOCLDY    66  66 100 E10       29.82F FOG
ELKHART          N/A     60  31  33 SW10        N/A
GARDEN CITY    CLOUDY    65  64  97 E18       29.80F
GREAT BEND     MOCLDY    66  59  77 E10       29.83F
LIBERAL        CLEAR     57  43  58 W5G22     29.80F
$$

KSZ066>073-081>083-090>101-261000-
SOUTHEAST KANSAS

CITY           SKY/WX    TMP DP  RH WIND       PRES   REMARKS
CHANUTE        CLEAR     74  71  91 S8        29.84S
COFFEYVILLE    CLOUDY    77  73  87 S10       29.86F
HUTCHINSON     CLOUDY    72  69  90 NE7       29.84F
MEDICINE LODGE   N/A     76  72  87 S12       29.80S
NEWTON         CLOUDY    72  66  83 CALM      29.88S
PARSONS        CLOUDY    76  74  93 S10       29.86F
WICHITA INTL   CLOUDY    74  69  85 S5        29.82S
WICHITA JABRA  CLOUDY    73  72  96 CALM      29.84R
WINFIELD       CLOUDY    74  72  93 S8        29.84S FOG
$$

KSZ007>012-019>026-033>040-048>060-102>105-261000-
NORTHEAST KANSAS

CITY           SKY/WX    TMP DP  RH WIND       PRES   REMARKS
CONCORDIA      CLEAR     56  52  86 S5        29.84S
EMPORIA        CLOUDY    74  72  93 W3        29.86R
LAWRENCE       TSTM      68  62  81 N12       29.86R
MANHATTAN      CLOUDY    68  61  78 CALM      29.83F
OLATHE IND     CLOUDY    64  62  93 S8        29.87R
OLATHE EXE     CLOUDY    63  61  93 S9        29.87R
SALINA         CLEAR     68  60  75 E5        29.83F
TOPEKA BILLARD CLOUDY    69  65  86 N7        29.85R
TOPEKA FORBES  MOCLDY    68  63  84 S8        29.83S
$$




USA.gov is the U.S. government's official web portal to all federal, state and local government web resources and services.